Location: Los Angeles Aqueduct
(34.5417°N, 118.5109°W)
Time: 02:33:51
(UTC+00:00)

Daily predictions for brighter satellites

Satellite Brightness Start Highest point End
(mag) Time Altitude Azimuth Time Altitude Azimuth Time Altitude Azimuth
CENTAUR R/B 3.5 03:14:35 10° NNW 03:23:06 70° ENE 03:32:08 10° SE
Cosmos 2227 Rocket 3.6 03:19:07 10° N 03:23:27 22° ENE 03:27:45 10° ESE
Cosmos 1151 Rocket 3.2 03:21:39 10° SSE 03:25:46 50° E 03:29:54 10° NNE
deb Chang Zheng 4 3.5 03:22:53 10° SSE 03:27:01 85° W 03:31:09 10° NNW
Cosmos 1980 Rocket 3.5 03:23:38 10° SE 03:27:27 19° E 03:31:17 10° ENE
COSMOS 2487 2.9 03:24:47 10° NNW 03:27:50 52° WSW 03:30:51 10° S
ASTRO E2 2.9 03:24:22 10° WSW 03:28:11 54° S 03:32:01 10° ESE
Cosmos 1725 Rocket 4.3 03:22:02 10° S 03:28:19 76° W 03:34:40 10° N
Cosmos 1816 Rocket 4.5 03:22:51 10° N 03:29:03 84° E 03:35:11 10° S
Resurs 1-3 4.5 03:26:41 10° SE 03:30:35 33° ENE 03:34:32 10° N
Cosmos 1743 Rocket 4.2 03:26:31 10° NNW 03:30:54 60° W 03:35:14 10° S
Cosmos 1812 4.0 03:28:05 10° SSW 03:31:42 43° W 03:35:21 10° N
USA 238 DEB 4.3 03:27:28 10° NNW 03:34:39 52° NE 03:42:06 10° SE
USA 238 4.3 03:27:35 10° NNW 03:34:46 51° NE 03:42:12 10° SE
Cosmos 1666 Rocket 4.3 03:30:45 10° NNE 03:34:49 35° E 03:38:53 10° SE
Cosmos 1805 Rocket 3.7 03:31:13 10° N 03:35:40 80° W 03:40:04 10° S
SL-12 R/B (Aux Motor) 4.4 03:32:56 10° SW 03:37:51 54° SSE 03:40:04 10° ENE
Cosmos 44 3.0 03:34:06 10° NNW 03:38:25 68° ENE 03:42:45 10° SE
USA 234 4.2 03:33:21 10° SSE 03:39:31 43° SW 03:45:42 10° WNW
Gbstr 26 Del rocket 4.2 03:32:40 10° NW 03:40:12 79° NE 03:46:04 12° SE
SJ 16-02 3.3 03:39:55 10° ESE 03:40:54 11° E 03:41:54 10° E
Okean O Rocket 4.2 03:39:02 10° SW 03:42:13 20° W 03:45:25 10° NW
Cosmos 1633 Rocket 3.7 03:39:37 10° NNE 03:43:39 36° E 03:47:26 11° SE
Cosmos 1697 Rocket 2.7 03:40:41 10° S 03:46:15 63° ESE 03:51:51 10° NNE
H-2A R/B 2.6 03:41:59 10° SSE 03:46:23 89° WSW 03:50:42 10° NNW
CZ-4 R/B 3.7 03:43:23 10° SSW 03:46:38 24° W 03:49:58 10° NW
OAO 3 Rocket 3.3 03:42:36 10° W 03:47:32 84° N 03:52:30 10° E
Cosmos 2360 4.2 03:43:42 10° S 03:49:17 63° ESE 03:54:54 10° NNE
Landsat 7 4.2 03:46:16 10° SE 03:50:40 45° ENE 03:55:10 10° N
Sich 1 3.5 03:48:04 10° NNW 03:52:22 63° W 03:56:37 10° S
Cosmos 1570 Rocket 4.0 03:49:48 10° NNW 03:55:02 71° ENE 03:59:57 12° SSE
Resurs 01 Rocket 2.6 03:53:44 15° SE 03:56:42 31° ENE 04:00:34 10° N
Cosmos 1486 Rocket 4.0 03:52:48 10° S 03:58:02 64° ESE 04:03:16 10° NNE
SJ-6B 3.2 03:54:35 10° S 03:58:23 62° W 04:02:08 10° NNW
Tsikada Rocket 4.2 03:53:08 10° N 03:59:24 74° W 04:05:33 10° S
BREEZE-M DEB (TANK) 4.4 03:55:13 10° WSW 04:00:03 68° NW 04:12:42 10° NE
Cosmos 1814 Rocket 4.1 03:55:14 10° NNW 04:00:21 75° WSW 04:05:27 10° S
Cosmos 2297 Rocket 2.2 03:55:04 10° NNW 04:00:42 69° ENE 04:05:25 15° SSE
Cosmos 1315 Rocket 2.8 03:57:11 10° N 04:01:14 69° E 04:04:40 13° SSE
Cosmos 1515 Rocket 4.0 03:58:59 11° SSE 04:02:49 41° E 04:06:56 10° NNE
ARGOS Delta rocket 4.3 03:59:04 10° NNE 04:04:25 52° E 04:09:36 10° S
Cosmos 1340 3.2 04:03:00 16° SSE 04:05:34 38° E 04:09:03 10° NNE
Cosmos 1184 Rocket 3.7 04:05:15 24° ESE 04:05:52 26° E 04:08:26 10° NE
Cosmos 389 Rocket 4.2 04:03:30 10° NNE 04:05:55 17° ENE 04:06:38 17° E
Cosmos 405 3.5 04:03:16 10° N 04:06:29 38° E 04:08:03 24° SE
ATLAS 5 CENTAUR R/B 3.5 03:54:12 10° W 04:07:08 26° SSW 04:11:26 13° SSE
Okean-O 3.8 04:04:14 10° S 04:08:24 41° W 04:12:34 10° NNW
Meteor 1-10 Rocket 4.3 04:06:32 10° SSW 04:12:03 78° W 04:17:39 10° N
IGS 5A 4.0 04:14:30 10° S 04:18:33 57° W 04:22:39 10° NNW
Cosmos 1743 3.5 04:15:51 10° NNE 04:19:15 32° E 04:20:13 27° ESE
Meteor 1-27 Rocket 3.7 04:16:17 10° S 04:21:59 77° E 04:27:50 10° NNE
PSLV R/B 4.3 04:18:31 10° N 04:22:31 65° WNW 04:26:30 10° SSW
CZ-4B R/B 1.4 04:20:13 10° N 04:23:23 70° WNW 04:26:11 12° SSW
Cosmos 1503 Rocket 3.9 04:21:59 10° S 04:27:10 69° ESE 04:32:27 10° NNE
ATLAS 2AS CENTAUR R/B 2.9 04:23:43 10° SSW 04:31:24 65° ESE 04:39:00 10° NE
Cosmos 2278 4.0 04:30:19 19° S 04:34:05 45° ESE 04:39:28 10° NE
SPOT 1/Viking Rocket 3.5 04:34:06 27° SSE 04:36:58 74° ENE 04:42:07 10° N
Cosmos 2219 3.1 04:33:12 10° NNW 04:38:51 86° ENE 04:41:46 30° SSE
H-2A R/B 3.8 04:35:26 10° N 04:39:03 31° WNW 04:42:40 10° SW
Meteor 1-11 Rocket 3.9 04:35:36 10° N 04:41:35 84° W 04:45:33 22° S
Okean 1 3.4 04:44:52 48° ESE 04:45:22 52° E 04:49:17 10° NNE
Cosmos 2082 4.1 04:40:41 10° N 04:46:07 48° ENE 04:48:03 34° ESE
RESURS DK-1 2.3 04:45:24 43° SSE 04:46:29 61° ESE 04:50:33 10° NNE
Cosmos 1536 2.8 04:44:04 10° N 04:48:06 82° W 04:49:24 42° S
Cosmos 1464 Rocket 4.0 04:42:14 10° S 04:48:27 79° W 04:54:38 10° N
Cosmos 2263 Rocket 3.5 04:46:13 10° N 04:50:45 25° ENE 04:52:15 22° E
SL-4 R/B 2.6 04:52:24 10° NW 04:56:48 51° NE 04:57:41 43° ENE
Ariane Rocket 3.2 04:58:25 33° S 05:00:42 69° WSW 05:05:46 10° NNW
CZ-2C R/B 4.0 05:00:42 10° NNE 05:05:20 50° E 05:05:24 50° ESE
Cosmos 2227 Rocket 3.0 05:02:18 10° NW 05:07:41 46° WSW 05:10:21 27° SSW
ASTRO E2 3.9 05:04:33 10° W 05:07:05 30° SW 05:07:05 30° SW
Cosmos 1092 Rocket 4.4 05:03:10 10° N 05:09:01 44° E 05:10:09 40° ESE
Cosmos 1634 Rocket 4.3 05:08:17 42° ESE 05:09:24 46° E 05:15:16 10° NNE
Cosmos 1933 Rocket 3.9 05:06:08 10° NNW 05:10:34 63° W 05:11:39 46° SSW
Nadezhda 4 Rocket 3.9 05:04:23 10° N 05:10:37 85° E 05:12:52 42° S
Cosmos 1980 Rocket 3.1 05:05:35 10° SW 05:10:59 48° WNW 05:16:27 10° N
SPOT 5 3.2 05:13:35 51° ESE 05:14:24 57° ENE 05:19:30 10° N
Gblst 52 Del rocket 4.5 05:10:17 10° SSW 05:17:18 62° SE 05:23:25 10° NE
Helios 1A Rocket 2.9 05:17:41 69° NE 05:17:41 69° NE 05:21:23 10° N
Cosmos 1975 4.2 05:14:05 10° NNE 05:16:41 28° NE 05:16:41 28° NE
Meteor 2-14 Rocket 4.3 05:12:04 10° N 05:18:10 82° E 05:19:53 50° SSE
SJ 16-02 2.1 05:16:43 26° SW 05:18:54 50° WNW 05:23:09 10° N
Cosmos 2322 Rocket 3.4 05:20:36 27° ENE 05:20:36 27° ENE 05:23:55 10° NE
Terra 2.5 05:19:10 40° ENE 05:19:10 40° ENE 05:23:31 10° N
Meteor 1-19 Rocket 4.4 05:19:16 29° SSW 05:22:00 64° W 05:27:23 10° N
Meteor 2-4 Rocket 3.7 05:22:05 57° SE 05:22:54 64° E 05:28:32 10° NNE
Milstar 3 Cent rocket 4.4 05:11:56 10° W 05:25:07 31° SW 05:28:23 26° S
Cosmos 783 Rocket 4.3 05:23:29 10° NNW 05:28:41 74° ENE 05:29:00 72° ESE
Timation 2 Rocket 4.1 05:23:49 10° NNW 05:30:30 90° SW 05:32:14 54° SSE
OAO 3 Rocket 3.3 05:26:09 10° W 05:30:38 66° SW 05:30:38 66° SW
SPOT 3 Rocket 3.9 05:30:22 46° SW 05:31:29 56° W 05:36:32 10° NNW
Resurs 01 Rocket 3.8 05:31:16 15° SW 05:33:11 19° W 05:36:18 10° NW
Spot 2 Rocket 3.3 05:34:06 78° S 05:34:26 86° WSW 05:39:29 10° NNW
Cosmos 2026 Rocket 4.0 05:29:06 10° N 05:35:14 63° E 05:35:58 59° ESE
Cosmos 773 Rocket 3.9 05:38:58 10° NNW 05:44:11 79° WSW 05:44:13 79° WSW
Meteor 2-8 Rocket 4.3 05:48:48 68° S 05:49:38 88° W 05:55:46 10° N
Cosmos 921 Rocket 4.4 05:50:41 10° NW 05:54:31 32° W 05:54:31 32° W
Cosmos 1627 Rocket 4.4 05:48:43 10° N 05:54:59 86° W 05:55:40 72° S
Cosmos 1346 Rocket 4.1 05:56:29 38° NNW 05:56:29 38° NNW 05:59:07 10° N
SL-16 R/B 2.1 05:57:29 77° WSW 05:57:46 80° WNW 06:03:28 10° NNE
USA 215 3.1 05:51:48 10° NE 05:58:09 67° ESE 05:58:09 67° ESE
CZ-3 Stage 3 4.4 05:53:42 10° W 05:58:20 27° WSW 05:58:20 27° WSW
USA 81 4.2 06:03:19 65° W 06:03:19 65° W 06:08:31 10° N
Meteor 2-15 4.5 06:05:01 65° SW 06:05:41 71° W 06:11:45 10° N
Cosmos 158 Rocket 4.3 06:06:49 10° NNW 06:11:14 63° NW 06:11:14 63° NW
ERS-1 Rocket 3.9 06:12:43 41° W 06:12:43 41° W 06:17:10 10° NNW
Cosmos 2279 Rocket 3.9 06:12:36 82° WSW 06:12:46 83° W 06:19:00 10° N
Cosmos 44 Rocket 4.1 06:09:50 10° NNW 06:13:11 45° N 06:13:11 45° N
ARIANE 5 R/B 3.7 06:15:52 42° NW 06:15:52 42° NW 06:19:03 10° NNW
Cosmos 1538 Rocket 4.5 06:17:06 10° NNW 06:21:13 57° NNW 06:21:13 57° NNW
Cosmos 2360 Rocket 2.8 06:25:20 48° NE 06:25:20 48° NE 06:29:22 10° NNE
Cosmos 2263 Rocket 3.2 06:29:36 10° NW 06:33:56 36° W 06:33:56 36° W
ATLAS CENTAUR R/B 4.1 06:35:21 10° NNE 06:37:56 15° NE 06:37:56 15° NE
ATLAS 3B R/B 2.8 06:48:04 10° NNW 06:55:31 89° N 06:55:31 89° N
Terra 4.1 06:58:03 16° WNW 06:58:03 16° WNW 07:00:02 10° NW
Cosmos 2322 Rocket 3.6 07:02:20 29° WNW 07:02:59 30° WNW 07:07:53 10° N
Cosmos 2333 Rocket 3.1 07:07:35 45° NNE 07:07:35 45° NNE 07:11:25 10° NNE
Cosmos 1844 Rocket 3.5 07:09:16 10° NNW 07:13:07 46° NNW 07:13:07 46° NNW
Cosmos 1655 Rocket 4.5 07:14:41 10° NNW 07:19:43 54° NW 07:19:43 54° NW
CZ-4C R/B 4.3 07:18:10 10° NNW 07:24:52 33° NE 07:28:18 25° E
Cosmos 2219 Rocket 3.2 07:29:40 43° N 07:29:40 43° N 07:33:23 10° NNE
ADEOS Rocket 3.6 07:50:02 49° N 07:50:02 49° N 07:54:16 10° N
Cosmos 2237 Rocket 3.7 07:58:41 29° ENE 07:58:41 29° ENE 08:01:46 10° NE
COSMOS 2428 3.7 08:00:10 44° NNW 08:00:10 44° NNW 08:04:13 10° NNE
USA 267 3.7 08:11:25 51° ENE 08:12:24 56° NE 08:18:46 10° NW
ATLAS CENTAUR R/B 4.0 08:12:39 10° NW 08:13:56 18° NW 08:13:56 18° NW
Resurs 1-4 Rocket 4.4 08:14:22 10° ENE 08:16:15 15° ENE 08:16:15 15° ENE
Cosmos 2278 Rocket 3.1 08:27:52 10° N 08:32:36 45° NE 08:32:36 45° NE
Cosmos 2315 Rocket 4.4 08:34:57 56° ENE 08:34:57 56° ENE 08:40:27 10° NNE
Cosmos 1709 Rocket 4.5 08:32:25 10° N 08:37:50 52° ENE 08:37:50 52° ENE
S3M 4.4 08:42:01 58° NW 08:42:01 58° NW 08:47:23 10° N
SL-16 R/B 3.6 08:45:29 30° ENE 08:45:29 30° ENE 08:49:16 10° NE
Cosmos 1980 4.4 08:49:44 48° NNW 08:49:44 48° NNW 08:54:04 10° NNE
NOSS 3-1 (A) 4.1 08:40:39 10° NNW 08:48:38 85° ENE 08:50:03 67° SE
NOSS 3-1 (C) 4.4 08:48:23 10° NW 08:55:16 53° W 08:55:16 53° W
COSMOS 2455 4.3 08:57:22 27° E 08:57:22 27° E 09:01:40 10° NE
Meteor 1-24 Rocket 4.3 09:05:48 49° ENE 09:05:48 49° ENE 09:10:30 10° NNE
ATLAS 5 CENTAUR R/B 3.6 08:59:17 10° NW 09:04:56 41° NNW 09:04:56 41° NNW
Meteor 2-10 Rocket 4.1 09:02:12 10° N 09:06:50 58° NNE 09:06:50 58° NNE
Lacrosse 5 2.7 09:14:24 48° NNE 09:14:24 48° NNE 09:18:11 10° NE
CZ-4C R/B 3.2 09:06:10 10° NW 09:13:24 59° WSW 09:13:24 59° WSW
Lacrosse 5 rocket 3.5 09:19:29 22° NE 09:19:29 22° NE 09:20:59 10° NE
Meteor 2-5 Rocket 3.8 09:27:59 73° NNW 09:27:59 73° NNW 09:33:12 10° N
CZ-2D R/B 2.3 09:24:17 10° NNE 09:29:02 69° NE 09:29:02 69° NE
AQUA 4.4 09:32:09 10° NNE 09:36:12 52° ENE 09:36:12 52° ENE
Cosmos 2237 Rocket 3.7 09:40:30 23° WNW 09:40:38 23° WNW 09:45:09 10° N
Resurs 1-4 Rocket 2.4 09:52:27 10° N 09:57:19 52° WNW 09:57:19 52° WNW
Cosmos 292 Rocket 3.8 10:00:36 77° ENE 10:00:36 77° ENE 10:05:12 10° NNE
SL-16 R/B 2.4 10:00:07 55° SSE 10:01:38 89° WSW 10:07:53 10° NNW
Cosmos 1943 Rocket 2.3 09:58:53 10° NNW 10:04:35 75° ENE 10:06:33 42° SE
Cosmos 2297 4.2 10:00:57 10° NNW 10:06:38 60° ENE 10:10:28 21° SE
Cosmos 2228 4.5 10:05:42 10° NNE 10:09:40 33° E 10:11:19 25° ESE
ADEOS II 1.9 10:07:34 10° N 10:12:49 75° WNW 10:13:19 69° WSW
IDEFIX/ARIANE 42P 2.4 10:07:50 10° NNE 10:13:08 89° ESE 10:13:52 67° S
Cosmos 1536 Rocket 3.8 10:13:47 60° NW 10:13:47 60° NW 10:17:38 10° N
Cosmos 2074 Rocket 3.9 10:09:42 10° NNW 10:15:57 67° W 10:17:15 54° SSW
OAO 2 Rocket 3.8 10:16:57 46° SE 10:16:57 46° SE 10:21:10 10° E
Cosmos 2278 Rocket 4.2 10:13:04 10° NW 10:14:24 14° WNW 10:14:24 14° WNW
Cosmos 1455 3.5 10:19:00 10° NNW 10:21:07 30° NNW 10:21:07 30° NNW
Cosmos 1295 Rocket 4.5 10:16:51 10° N 10:23:14 87° E 10:26:12 34° S
NOSS 3-3 (A) 3.7 10:23:18 54° SSW 10:24:36 79° ESE 10:30:41 10° NNE
NOSS 3-3 (C) 3.7 10:23:24 54° S 10:24:42 78° ESE 10:30:47 10° NNE
Cosmos 614 Rocket 4.1 10:19:45 10° NNW 10:24:57 72° ENE 10:27:52 27° SSE
Meteor 1-21 Rocket 4.4 10:23:46 39° SSE 10:25:50 70° E 10:31:24 10° NNE
NPP 4.5 10:22:44 10° N 10:27:32 34° WNW 10:28:05 33° W
Cosmos 1271 Rocket 2.7 10:24:03 10° N 10:27:50 79° ENE 10:27:50 79° ENE
SL-16 R/B 3.3 10:27:21 27° WNW 10:28:17 29° WNW 10:33:10 10° N
IRS-1D 3.7 10:23:11 10° NNE 10:28:31 72° ESE 10:30:15 43° S
Cosmos 2251 Rocket 4.5 10:25:05 10° N 10:30:09 46° ENE 10:35:13 10° SE
UNK 4.1 10:30:44 46° WNW 10:30:44 46° WNW 10:34:42 10° NNW
DNEPR-1 R/B 3.5 10:29:53 61° SSE 10:30:15 64° ESE 10:34:35 10° NE
YAOGAN 11 4.5 10:31:35 48° WNW 10:31:35 48° WNW 10:35:27 10° NNW
Cosmos 2369 Rocket 3.2 10:25:50 10° N 10:31:10 45° ENE 10:36:29 10° SE
Cosmos 2184 Rocket 4.2 10:25:11 10° NNW 10:31:10 51° W 10:32:27 44° SW
Cosmos 1610 Rocket 4.3 10:28:35 10° N 10:34:43 77° W 10:37:28 35° S
COSMOS 2441 4.2 10:32:48 10° NNE 10:37:40 88° W 10:38:59 49° SSW
MOS 1 Rocket 3.7 10:39:45 39° WNW 10:39:45 39° WNW 10:43:12 10° NNW
COSMOS 2455 3.6 10:40:30 32° W 10:42:22 40° WNW 10:48:01 10° N
Cosmos 1606 Rocket 4.2 10:38:10 10° N 10:42:29 53° E 10:45:25 19° SSE
Cosmos 2181 Rocket 4.4 10:42:09 18° SSE 10:46:48 62° E 10:52:53 10° NNE
Helios 1B rocket 3.0 10:44:33 10° NNE 10:48:32 53° E 10:50:15 30° SSE
Cosmos 962 Rocket 4.5 10:43:17 10° N 10:49:26 82° E 10:54:49 14° S
Cosmos 1328 3.7 10:49:40 51° S 10:50:36 87° E 10:54:35 10° N
Cosmos 1603 3.6 10:49:16 37° SSW 10:51:37 85° WNW 10:57:19 10° NNE
ALOS 3.6 10:48:42 10° NNE 10:52:59 35° E 10:56:51 12° SSE
Helios 1A 3.4 10:56:14 41° WSW 10:56:21 41° W 11:00:20 10° NNW
Lacrosse 5 rocket 3.7 10:55:00 10° WNW 10:56:38 12° NNW 10:58:20 10° N
Lacrosse 5 4.2 10:54:05 10° WNW 10:56:50 14° NNW 10:59:35 10° N
MOS 1-B Rocket 4.4 10:51:34 10° SSE 10:57:04 57° ENE 11:02:37 10° N
CZ-2C R/B 3.5 10:54:49 10° NNE 10:59:38 42° E 11:04:03 11° SSE
MSX 4.3 10:55:48 10° N 11:01:14 45° WNW 11:03:41 29° WSW
Chunghua 1 4.2 11:01:48 47° W 11:02:44 87° S 11:06:17 10° E
Lacrosse 4 Rocket 3.0 11:03:46 14° SSE 11:06:49 30° ESE 11:10:35 10° NE
CZ-2D R/B 4.2 11:07:22 10° NW 11:08:53 11° WNW 11:10:21 10° WNW
Cosmos 1892 Rocket 3.5 11:10:34 29° SSW 11:12:46 68° W 11:17:14 10° N
Cosmos 1371 Rocket 3.9 11:10:42 24° SSW 11:13:53 87° WNW 11:19:04 10° NNE
GPS 2-04 Rocket1 2.2 11:12:57 43° WSW 11:13:56 73° SSE 11:17:27 10° E
Cosmos 1825 4.1 11:11:56 10° SSE 11:15:07 27° E 11:18:19 10° NNE
Cosmos 407 Rocket 3.8 11:11:24 10° NNW 11:16:42 70° ENE 11:21:54 10° SSE
Meteor 1-11 4.3 11:16:50 15° S 11:21:46 85° W 11:27:35 10° N
Cosmos 1726 Rocket 3.5 11:17:32 10° NNW 11:21:55 67° W 11:25:45 13° S
Cosmos 1943 3.9 11:19:48 23° WSW 11:22:49 40° WNW 11:28:09 10° N
BREEZE-M DEB (TANK) 4.2 11:20:17 15° W 11:23:19 27° NW 11:25:43 10° NNE
[s.n.52708] 3.8 11:24:35 26° WNW 11:25:26 32° NW 11:28:01 10° NNE
[s.n.52707] 3.8 11:24:42 26° WNW 11:25:33 32° NW 11:28:07 10° NNE
[s.n.52703] 3.8 11:24:49 26° WNW 11:25:40 32° NW 11:28:15 10° NNE
[s.n.52705] 3.8 11:24:55 26° WNW 11:25:46 32° NW 11:28:21 10° NNE
[s.n.52706] 3.8 11:25:02 25° WNW 11:25:53 31° NW 11:28:28 10° NNE
[s.n.52701] 3.8 11:25:09 25° WNW 11:26:01 31° NW 11:28:35 10° NNE
[s.n.52704] 3.8 11:25:16 25° WNW 11:26:08 31° NW 11:28:42 10° NNE
[s.n.52699] 3.8 11:25:23 25° WNW 11:26:15 31° NW 11:28:49 10° NNE
[s.n.52702] 3.8 11:25:29 25° WNW 11:26:22 31° NW 11:28:57 10° NNE
[s.n.52697] 3.8 11:25:36 25° WNW 11:26:29 31° NW 11:29:04 10° NNE
Meteor 2-1 Rocket 4.3 11:20:56 10° NNW 11:26:31 57° W 11:31:58 10° S
[s.n.52700] 3.9 11:25:43 25° WNW 11:26:36 31° NW 11:29:10 10° NNE
Cosmos 1140 Rocket 3.5 11:21:24 10° NNW 11:26:40 88° WSW 11:31:53 10° SSE
[s.n.52695] 3.9 11:25:50 25° WNW 11:26:44 31° NW 11:29:18 10° NNE
[s.n.52698] 3.9 11:25:56 25° WNW 11:26:50 31° NW 11:29:25 10° NNE
[s.n.52693] 3.9 11:26:03 25° WNW 11:26:57 31° NW 11:29:31 10° NNE
[s.n.52696] 3.9 11:26:10 24° WNW 11:27:05 31° NW 11:29:39 10° NNE
[s.n.52691] 3.9 11:26:17 24° WNW 11:27:11 30° NW 11:29:46 10° NNE
[s.n.52689] 3.9 11:26:24 24° WNW 11:27:19 30° NW 11:29:53 10° NNE
[s.n.52694] 3.9 11:26:31 24° WNW 11:27:26 30° NW 11:30:00 10° NNE
[s.n.52692] 3.9 11:26:38 24° WNW 11:27:33 30° NW 11:30:07 10° NNE
[s.n.52687] 3.9 11:26:44 24° WNW 11:27:40 30° NW 11:30:14 10° NNE
[s.n.52685] 3.9 11:26:51 24° WNW 11:27:47 30° NW 11:30:21 10° NNE
[s.n.52690] 3.9 11:26:58 24° WNW 11:27:54 30° NW 11:30:28 10° NNE
[s.n.52688] 3.9 11:27:05 24° WNW 11:28:01 30° NW 11:30:35 10° NNE
[s.n.52683] 3.9 11:27:12 23° WNW 11:28:09 30° NW 11:30:42 10° NNE
[s.n.52686] 3.9 11:27:19 23° WNW 11:28:16 30° NW 11:30:50 10° NNE
[s.n.52681] 3.9 11:27:26 23° WNW 11:28:24 30° NW 11:30:57 10° NNE
[s.n.52679] 3.9 11:27:33 23° WNW 11:28:31 29° NW 11:31:04 10° NNE
[s.n.52684] 3.9 11:27:40 23° WNW 11:28:38 29° NW 11:31:11 10° NNE
[s.n.52682] 4.0 11:27:46 23° WNW 11:28:45 29° NW 11:31:18 10° NNE
[s.n.52677] 4.0 11:27:53 23° WNW 11:28:53 29° NW 11:31:25 10° NNE
[s.n.52680] 4.0 11:28:01 23° WNW 11:29:00 29° NW 11:31:33 10° NNE
[s.n.52675] 4.0 11:28:07 23° WNW 11:29:07 29° NW 11:31:40 10° NNE
[s.n.52678] 4.0 11:28:14 23° WNW 11:29:14 29° NW 11:31:47 10° NNE
[s.n.52673] 4.0 11:28:22 22° WNW 11:29:23 29° NW 11:31:55 10° NNE
[s.n.52676] 4.0 11:28:29 22° WNW 11:29:29 29° NW 11:32:02 10° NNE
[s.n.52671] 4.0 11:28:37 22° WNW 11:29:38 29° NW 11:32:09 10° NNE
[s.n.52669] 4.0 11:28:44 22° WNW 11:29:45 29° NW 11:32:16 10° NNE
[s.n.52674] 4.0 11:28:50 22° WNW 11:29:52 29° NW 11:32:24 10° NNE
[s.n.52672] 4.0 11:28:56 22° WNW 11:29:58 28° NW 11:32:31 10° NNE
[s.n.52667] 4.0 11:29:05 22° WNW 11:30:07 28° NW 11:32:38 10° NNE
[s.n.52665] 4.0 11:29:11 22° WNW 11:30:14 28° NW 11:32:46 10° NNE
[s.n.52670] 4.0 11:29:18 22° WNW 11:30:21 28° NW 11:32:53 10° NNE
[s.n.52668] 4.0 11:29:26 22° WNW 11:30:29 28° NW 11:33:00 10° NNE
[s.n.52666] 4.0 11:29:33 22° WNW 11:30:36 28° NW 11:33:08 10° NNE
[s.n.52663] 4.0 11:29:40 21° WNW 11:30:44 28° NW 11:33:15 10° NNE
[s.n.52662] 4.0 11:29:47 21° WNW 11:30:51 28° NW 11:33:22 10° NNE
[s.n.52664] 4.0 11:29:54 21° WNW 11:30:58 28° NW 11:33:29 10° NNE
SeaSat 1 2.9 11:26:11 10° NNE 11:31:02 58° ESE 11:35:53 10° SSW
[s.n.52661] 4.1 11:30:02 21° WNW 11:31:06 28° NW 11:33:37 10° NNE
[s.n.52660] 4.1 11:30:08 21° W 11:31:13 28° NW 11:33:44 10° NNE
[s.n.52656] 4.1 11:30:16 21° WNW 11:31:21 27° NW 11:33:51 10° NNE
[s.n.52658] 4.1 11:30:23 21° W 11:31:29 27° NW 11:34:00 10° NNE
[s.n.52659] 4.1 11:30:30 21° W 11:31:36 27° NW 11:34:07 10° NNE
[s.n.52657] 4.1 11:30:38 21° WNW 11:31:44 27° NW 11:34:14 10° NNE
Cosmos 1892 2.6 11:29:36 17° SSW 11:32:26 76° W 11:36:13 10° N
Cosmos 2366 rocket 3.9 11:26:53 10° N 11:33:02 76° W 11:39:14 10° S
BREEZE-M DEB (TANK) 3.5 11:32:30 21° WSW 11:34:25 57° NNW 11:42:01 10° NE
Cosmos 2341 Rocket 4.3 11:28:31 10° NNW 11:34:38 49° W 11:40:43 10° SSW
SL-24 DEB 4.3 11:30:51 10° S 11:35:26 58° W 11:40:06 10° NNW
SL-8 Rocket 4.2 11:33:55 10° NNW 11:40:03 54° W 11:46:09 10° SSW
IRS-1C 4.1 11:35:15 10° N 11:40:34 74° WNW 11:45:53 10° SSW
Cosmos 1408 2.9 11:38:52 18° SSW 11:41:14 45° W 11:44:44 10° N
SL-16 R/B 4.3 11:45:37 10° W 11:45:54 10° W 11:46:11 10° W
DELTA 2 DEB (DPAF) 4.2 11:42:55 10° SSE 11:47:20 86° ENE 11:51:46 10° NNW
Cosmos 1624 Rocket 4.5 11:43:17 15° SW 11:47:25 45° WNW 11:52:31 10° N
Cosmos 1943 Rocket 4.0 11:45:48 10° WNW 11:47:32 11° W 11:47:58 11° WSW
FENGYUN 3A 4.0 11:42:55 10° N 11:48:06 50° WNW 11:53:13 10° SSW
Cosmos 2263 4.4 11:45:30 10° NNW 11:50:58 49° WSW 11:56:27 10° S
ARIANE 5 R/B 2.5 11:47:19 10° N 11:52:19 67° WNW 11:57:15 10° SSW
